Location: Marse
(42.1502°N, 110.9866°W)
Time: 02:04:36
(UTC+00:00)

BEESAT - Pass Details

Date: 06 July 2022
Orbit: 700 x 706 km, 98.6° (Epoch: 11 August)

Event Time Altitude Azimuth Distance (km) Brightness Sun altitude
Rises 04:05:38 0° 10° (N) 3,105 ? -10.0°
Reaches altitude 10° 04:07:54 10° 8° (N) 2,183 ? -10.3°
Maximum altitude 04:12:39 67° 287° (WNW) 764 ? -10.9°
Drops below altitude 10° 04:17:22 10° 205° (SSW) 2,170 ? -11.6°
Sets 04:19:37 0° 202° (SSW) 3,085 ? -11.8°
